Weather History for KVOK - December, 2012

Change the Weather History Date:

Thursday, December 20, 2012

  Actual Average Record
Temperature  
Mean Temperature 28 °F -  
Max Temperature 32 °F 23 °F 43 °F (2006)
Min Temperature 23 °F 12 °F -6 °F (2010)
Degree Days  
Heating Degree Days 37    
Moisture  
Dew Point 27 °F    
Average Humidity 91    
Maximum Humidity 100    
Minimum Humidity 74    
Precipitation  
Precipitation 0.00 in - - ()
Snow  
Snow 0.00 in - - ()
Snow Depth 7.00 in    
Sea Level Pressure  
Sea Level Pressure 29.69 in    
Wind  
Wind Speed 11 mph (North)    
Max Wind Speed 26 mph    
Max Gust Speed 39 mph    
Visibility 2 miles    
Events Snow    
Averages and records for this station are not official NWS values.
T = Trace of Precipitation, MM = Missing Value Source: NWS Daily Summary

Daily Weather History Graph

Daily Weather History Graph

Search for Another Location

Airport or City:

Trip Planner

Search our weather history database for the weather conditions in past years. The results will help you decide how hot, cold, wet, or windy it might be!

Date:

Astronomy

Dec. 20, 2012 Rise Set
Actual Time 7:32 AM CST 4:25 PM CST
Civil Twilight 6:58 AM CST 4:58 PM CST
Nautical Twilight 6:22 AM CST 5:35 PM CST
Astronomical Twilight 5:47 AM CST 6:10 PM CST
Moon 11:53 AM CST (12/20) 12:08 AM CST (12/20)
Length of Visible Light 9h 59m
Length of Day
8h 53m
First Quarter, 55% of the Moon is Illuminated
Dec 20
First Quarter
Dec 28
Full
Jan 4
Last Quarter
Jan 11
New
Jan 18
First Quarter

Hourly Weather History & Observations

Time (CST) Temp. Windchill Dew Point Humidity Pressure Visibility Wind Dir Wind Speed Gust Speed Precip Events Conditions
12:03 AM 30.2 °F 24.3 °F 28.4 °F 93% 29.91 in 2.5 mi NE 5.8 mph - N/A Snow Light Snow
12:08 AM 30.2 °F 24.3 °F 28.4 °F 93% 29.90 in 2.0 mi NNE 5.8 mph - N/A Snow Light Snow
12:14 AM 30.2 °F 23.4 °F 28.4 °F 93% 29.89 in 2.5 mi Variable 6.9 mph - N/A Snow Light Snow
12:18 AM 30.2 °F 23.4 °F 28.4 °F 93% 29.89 in 2.5 mi NE 6.9 mph - N/A Snow Light Snow
12:23 AM 30.2 °F 23.4 °F 28.4 °F 93% 29.89 in 2.0 mi ENE 6.9 mph - N/A Snow Light Snow
12:27 AM 30.2 °F 22.6 °F 28.4 °F 93% 29.89 in 2.5 mi NE 8.1 mph - N/A Snow Light Snow
12:30 AM 30.2 °F 24.3 °F 28.4 °F 93% 29.89 in 2.5 mi Variable 5.8 mph - N/A Snow Light Snow
12:36 AM 30.2 °F 24.3 °F 28.4 °F 93% 29.89 in 2.0 mi NE 5.8 mph - N/A Snow Light Snow
12:38 AM 30.2 °F 25.4 °F 28.4 °F 93% 29.89 in 2.0 mi ENE 4.6 mph - N/A Snow Light Snow
12:42 AM 30.2 °F 25.4 °F 28.4 °F 93% 29.89 in 1.8 mi Variable 4.6 mph - N/A Snow Light Snow
12:55 AM 29.8 °F 23.9 °F 28.4 °F 94% 29.89 in 1.8 mi Variable 5.8 mph - 0.00 in Snow Light Snow
12:59 AM 30.2 °F 24.3 °F 28.4 °F 93% 29.89 in 2.0 mi ENE 5.8 mph - N/A Snow Light Snow
1:03 AM 30.2 °F 23.4 °F 28.4 °F 93% 29.89 in 1.8 mi ENE 6.9 mph - N/A Snow Light Snow
1:07 AM 30.2 °F 24.3 °F 28.4 °F 93% 29.89 in 1.5 mi ENE 5.8 mph - N/A Snow Light Snow
1:17 AM 30.2 °F 23.4 °F 28.4 °F 93% 29.88 in 1.8 mi Variable 6.9 mph - N/A Snow Light Snow
1:21 AM 30.2 °F 24.3 °F 28.4 °F 93% 29.88 in 1.8 mi NE 5.8 mph - N/A Snow Light Snow
1:24 AM 30.2 °F 25.4 °F 28.4 °F 93% 29.88 in 1.8 mi Variable 4.6 mph - N/A Snow Light Snow
1:37 AM 30.2 °F 24.3 °F 28.4 °F 93% 29.86 in 2.0 mi NNE 5.8 mph - N/A Snow Light Snow
1:41 AM 30.2 °F 21.9 °F 28.4 °F 93% 29.86 in 1.8 mi NE 9.2 mph - N/A Snow Light Snow
1:45 AM 30.2 °F 23.4 °F 28.4 °F 93% 29.86 in 1.5 mi NE 6.9 mph - N/A Snow Light Snow
1:49 AM 30.2 °F 24.3 °F 28.4 °F 93% 29.85 in 1.2 mi NE 5.8 mph - N/A Snow Light Snow
1:50 AM 30.2 °F 24.3 °F 28.4 °F 93% 29.85 in 1.2 mi NE 5.8 mph - N/A Snow Light Snow
1:55 AM 29.7 °F 23.7 °F 28.4 °F 95% 29.86 in 1.2 mi NE 5.8 mph - 0.00 in Snow Light Snow
1:56 AM 30.2 °F 23.4 °F 28.4 °F 93% 29.86 in 1.0 mi NE 6.9 mph - N/A Snow Light Snow
2:00 AM 30.2 °F 24.3 °F 28.4 °F 93% 29.86 in 1.0 mi NE 5.8 mph - N/A Snow Light Snow
2:10 AM 30.2 °F 23.4 °F 28.4 °F 93% 29.86 in 1.2 mi NNE 6.9 mph - N/A Snow Light Snow
2:14 AM 30.2 °F 23.4 °F 28.4 °F 93% 29.86 in 1.2 mi NNE 6.9 mph - N/A Snow Light Snow
2:15 AM 30.2 °F 25.4 °F 28.4 °F 93% 29.86 in 1.0 mi NNE 4.6 mph - N/A Snow Light Snow
2:20 AM 30.2 °F 24.3 °F 28.4 °F 93% 29.86 in 1.2 mi NNE 5.8 mph - N/A Snow Light Snow
2:25 AM 30.2 °F 23.4 °F 28.4 °F 93% 29.85 in 1.5 mi NNE 6.9 mph - N/A Snow Light Snow
2:29 AM 30.2 °F 24.3 °F 28.4 °F 93% 29.85 in 1.8 mi NNE 5.8 mph - N/A Snow Light Snow
2:38 AM 30.2 °F 23.4 °F 28.4 °F 93% 29.84 in 1.8 mi NNE 6.9 mph - N/A Snow Light Snow
2:44 AM 30.2 °F 22.6 °F 28.4 °F 93% 29.83 in 2.0 mi NNE 8.1 mph - N/A Snow Light Snow
2:48 AM 30.2 °F 23.4 °F 28.4 °F 93% 29.83 in 1.8 mi NNE 6.9 mph - N/A Snow Light Snow
2:55 AM 29.3 °F 21.5 °F 28.2 °F 96% 29.82 in 1.8 mi NNE 8.1 mph - 0.00 in Snow Light Snow
3:15 AM 28.4 °F 20.4 °F 28.4 °F 100% 29.81 in 2.0 mi NNE 8.1 mph - N/A Snow Light Snow
3:20 AM 28.4 °F 20.4 °F 28.4 °F 100% 29.81 in 1.8 mi NNE 8.1 mph - N/A Snow Light Snow
3:21 AM 28.4 °F 20.4 °F 28.4 °F 100% 29.81 in 2.0 mi NNE 8.1 mph - N/A Snow Light Snow
3:23 AM 28.4 °F 21.2 °F 28.4 °F 100% 29.80 in 1.8 mi NNE 6.9 mph - N/A Snow Light Snow
3:33 AM 28.4 °F 22.2 °F 28.4 °F 100% 29.81 in 2.0 mi NNE 5.8 mph - N/A Snow Light Snow
3:37 AM 28.4 °F 20.4 °F 28.4 °F 100% 29.80 in 2.5 mi NNE 8.1 mph - N/A Snow Light Snow
3:46 AM 28.4 °F 19.7 °F 28.4 °F 100% 29.79 in 2.5 mi NNE 9.2 mph - N/A Snow Light Snow
3:49 AM 28.4 °F 20.4 °F 28.4 °F 100% 29.79 in 3.0 mi NNE 8.1 mph - N/A Snow Light Snow
3:55 AM 28.9 °F 19.8 °F 27.5 °F 94% 29.78 in 3.0 mi NNE 10.4 mph - 0.00 in Snow Light Snow
3:57 AM 28.4 °F 19.7 °F 26.6 °F 93% 29.78 in 2.5 mi NNE 9.2 mph - N/A Snow Light Snow
4:03 AM 28.4 °F 20.4 °F 26.6 °F 93% 29.78 in 2.0 mi NNE 8.1 mph - N/A Snow Light Snow
4:13 AM 28.4 °F 19.7 °F 26.6 °F 93% 29.77 in 1.8 mi NE 9.2 mph 16.1 mph N/A Snow Light Snow
4:16 AM 28.4 °F 20.4 °F 26.6 °F 93% 29.77 in 2.0 mi NNE 8.1 mph 16.1 mph N/A Snow Light Snow
4:27 AM 28.4 °F 19.7 °F 26.6 °F 93% 29.75 in 2.5 mi NNE 9.2 mph - N/A Snow Light Snow
4:49 AM 28.4 °F 19.7 °F 26.6 °F 93% 29.74 in 3.0 mi North 9.2 mph - N/A Snow Light Snow
4:51 AM 28.4 °F 19.1 °F 26.6 °F 93% 29.74 in 3.0 mi NNE 10.4 mph - N/A Snow Light Snow
4:55 AM 29.1 °F 18.9 °F 27.5 °F 94% 29.73 in 3.0 mi North 12.7 mph - 0.00 in Snow Light Snow
5:09 AM 28.4 °F 19.1 °F 26.6 °F 93% 29.73 in 2.5 mi North 10.4 mph 17.3 mph N/A Snow Light Snow
5:11 AM 28.4 °F 19.7 °F 28.4 °F 100% 29.73 in 2.5 mi North 9.2 mph - N/A Snow Light Snow
5:14 AM 28.4 °F 19.7 °F 28.4 °F 100% 29.73 in 2.0 mi NNE 9.2 mph - N/A Snow Light Snow
5:19 AM 28.4 °F 18.5 °F 26.6 °F 93% 29.72 in 2.0 mi North 11.5 mph 19.6 mph N/A Snow Light Snow
5:41 AM 28.4 °F 17.5 °F 26.6 °F 93% 29.70 in 1.8 mi North 13.8 mph - N/A Snow Light Snow
5:47 AM 28.4 °F 17.5 °F 26.6 °F 93% 29.70 in 2.0 mi North 13.8 mph - N/A Snow Light Snow
5:55 AM 28.9 °F 18.2 °F 27.5 °F 94% 29.70 in 2.5 mi North 13.8 mph - 0.00 in Snow Light Snow
5:56 AM 28.4 °F 17.5 °F 26.6 °F 93% 29.70 in 2.5 mi North 13.8 mph - N/A Snow Light Snow
6:15 AM 28.4 °F 18.5 °F 26.6 °F 93% 29.68 in 2.5 mi North 11.5 mph 19.6 mph N/A Snow Light Snow
6:20 AM 28.4 °F 17.5 °F 26.6 °F 93% 29.68 in 3.0 mi North 13.8 mph - N/A Snow Light Snow
6:29 AM 28.4 °F 18.0 °F 26.6 °F 93% 29.68 in 5.0 mi North 12.7 mph - N/A Snow Light Snow
6:31 AM 28.4 °F 18.0 °F 26.6 °F 93% 29.68 in 5.0 mi North 12.7 mph 19.6 mph N/A Snow Light Snow
6:35 AM 28.4 °F 18.0 °F 26.6 °F 93% 29.67 in 6.0 mi North 12.7 mph 19.6 mph N/A Snow Light Snow
6:43 AM 28.4 °F 16.6 °F 26.6 °F 93% 29.67 in 6.0 mi North 16.1 mph 23.0 mph N/A Snow Light Snow
6:47 AM 28.4 °F 17.5 °F 26.6 °F 93% 29.67 in 6.0 mi North 13.8 mph 23.0 mph N/A Snow Light Snow
6:49 AM 28.4 °F 17.0 °F 26.6 °F 93% 29.67 in 5.0 mi North 15.0 mph 23.0 mph N/A Snow Light Snow
6:55 AM 29.1 °F 18.9 °F 27.0 °F 92% 29.67 in 4.0 mi North 12.7 mph 19.6 mph 0.00 in Snow Light Snow
7:23 AM 28.4 °F 18.0 °F 26.6 °F 93% 29.65 in 6.0 mi North 12.7 mph 24.2 mph N/A Snow Light Snow
7:39 AM 30.2 °F 19.8 °F 26.6 °F 86% 29.63 in 8.0 mi North 13.8 mph 21.9 mph N/A Snow Light Snow
7:43 AM 30.2 °F 19.3 °F 26.6 °F 86% 29.63 in 9.0 mi North 15.0 mph 21.9 mph N/A Snow Light Snow
7:55 AM 29.8 °F 20.3 °F 27.0 °F 89% 29.63 in 9.0 mi North 11.5 mph 25.3 mph 0.00 in Snow Light Snow
8:03 AM 30.2 °F 18.9 °F 26.6 °F 86% 29.62 in 9.0 mi North 16.1 mph 24.2 mph N/A Snow Light Snow
8:55 AM 30.4 °F 20.0 °F 27.7 °F 90% 29.59 in 5.0 mi North 13.8 mph 20.7 mph 0.00 in Snow Light Snow
9:09 AM 30.2 °F 18.5 °F 28.4 °F 93% 29.60 in 2.5 mi North 17.3 mph 24.2 mph N/A Snow Light Snow
9:11 AM 30.2 °F 19.8 °F 28.4 °F 93% 29.59 in 3.0 mi North 13.8 mph 24.2 mph N/A Snow Light Snow
9:13 AM 30.2 °F 19.8 °F 28.4 °F 93% 29.59 in 2.5 mi North 13.8 mph 23.0 mph N/A Snow Light Snow
9:24 AM 30.2 °F 19.8 °F 28.4 °F 93% 29.60 in 2.5 mi North 13.8 mph 21.9 mph N/A Snow Light Snow
9:26 AM 30.2 °F 19.8 °F 28.4 °F 93% 29.60 in 3.0 mi North 13.8 mph - N/A Snow Light Snow
9:31 AM 30.2 °F 20.2 °F 28.4 °F 93% 29.60 in 2.5 mi North 12.7 mph - N/A Snow Light Snow
9:33 AM 30.2 °F 19.3 °F 28.4 °F 93% 29.60 in 3.0 mi North 15.0 mph - N/A Snow Light Snow
9:36 AM 30.2 °F 18.9 °F 28.4 °F 93% 29.59 in 2.5 mi North 16.1 mph 23.0 mph N/A Snow Light Snow
9:45 AM 30.2 °F 19.3 °F 28.4 °F 93% 29.59 in 2.0 mi North 15.0 mph 23.0 mph N/A Snow Light Snow
9:47 AM 30.2 °F 19.8 °F 28.4 °F 93% 29.59 in 2.5 mi North 13.8 mph - N/A Snow Light Snow
9:48 AM 30.2 °F 19.8 °F 28.4 °F 93% 29.59 in 2.0 mi North 13.8 mph - N/A Snow Light Snow
9:55 AM 30.0 °F 18.7 °F 28.0 °F 92% 29.58 in 1.8 mi North 16.1 mph 24.2 mph 0.00 in Snow Light Snow
9:58 AM 30.2 °F 19.3 °F 28.4 °F 93% 29.58 in 1.5 mi North 15.0 mph 24.2 mph N/A   Overcast
10:11 AM 30.2 °F 18.9 °F 28.4 °F 93% 29.57 in 1.2 mi North 16.1 mph 26.5 mph N/A Snow Light Snow
10:34 AM 30.2 °F 19.3 °F 28.4 °F 93% 29.56 in 1.5 mi North 15.0 mph 25.3 mph N/A Snow Light Snow
10:44 AM 30.2 °F 18.9 °F 28.4 °F 93% 29.55 in 1.8 mi North 16.1 mph 28.8 mph N/A Snow Light Snow
10:48 AM 30.2 °F 18.9 °F 28.4 °F 93% 29.55 in 2.0 mi North 16.1 mph 28.8 mph N/A Snow Light Snow
10:51 AM 30.2 °F 17.8 °F 28.4 °F 93% 29.55 in 2.0 mi North 19.6 mph 28.8 mph N/A Snow Light Snow
10:53 AM 30.2 °F 18.9 °F 28.4 °F 93% 29.54 in 2.5 mi North 16.1 mph 28.8 mph N/A Snow Light Snow
10:55 AM 30.9 °F 19.4 °F 28.4 °F 90% 29.54 in 2.5 mi North 17.3 mph 28.8 mph 0.00 in Snow Light Snow
10:58 AM 30.2 °F 18.1 °F 28.4 °F 93% 29.54 in 2.0 mi North 18.4 mph 28.8 mph N/A Snow Light Snow
11:06 AM 30.2 °F 18.1 °F 28.4 °F 93% 29.53 in 2.0 mi North 18.4 mph 28.8 mph N/A Snow Light Snow
11:07 AM 30.2 °F 18.9 °F 28.4 °F 93% 29.53 in 2.5 mi North 16.1 mph 28.8 mph N/A Snow Light Snow
11:14 AM 30.2 °F 18.5 °F 28.4 °F 93% 29.52 in 3.0 mi North 17.3 mph 28.8 mph N/A Snow Light Snow
11:55 AM 31.3 °F 19.9 °F 28.0 °F 88% 29.50 in 5.0 mi NNW 17.3 mph 28.8 mph 0.00 in   Overcast
12:41 PM 32.0 °F 20.1 °F 28.4 °F 87% 29.49 in 3.0 mi NNW 19.6 mph 33.4 mph N/A Snow Light Snow
12:42 PM 32.0 °F 20.1 °F 28.4 °F 87% 29.49 in 3.0 mi NNW 19.6 mph 33.4 mph N/A Snow Light Snow
12:46 PM 32.0 °F 19.8 °F 28.4 °F 87% 29.49 in 3.0 mi NNW 20.7 mph 33.4 mph N/A   Overcast
12:55 PM 31.5 °F 18.2 °F 27.9 °F 87% 29.48 in 3.0 mi NNW 24.2 mph 32.2 mph 0.00 in   Overcast
12:56 PM 32.0 °F 19.2 °F 28.4 °F 87% 29.48 in 2.5 mi NNW 23.0 mph 32.2 mph N/A Snow Light Snow
1:08 PM 32.0 °F 20.1 °F 28.4 °F 87% 29.48 in 2.0 mi NNW 19.6 mph 25.3 mph N/A Snow Light Snow
1:11 PM 30.2 °F 18.9 °F 28.4 °F 93% 29.48 in 1.8 mi NNW 16.1 mph 25.3 mph N/A Snow Light Snow
1:17 PM 30.2 °F 17.4 °F 28.4 °F 93% 29.48 in 1.5 mi NNW 20.7 mph 28.8 mph N/A Snow Light Snow
1:20 PM 30.2 °F 17.1 °F 28.4 °F 93% 29.48 in 1.5 mi NNW 21.9 mph 28.8 mph N/A Snow Light Snow
1:21 PM 30.2 °F 17.4 °F 28.4 °F 93% 29.48 in 1.2 mi NNW 20.7 mph 28.8 mph N/A Snow Light Snow
1:50 PM 30.2 °F 18.1 °F 28.4 °F 93% 29.47 in 1.0 mi NNW 18.4 mph 29.9 mph N/A   Mist
1:55 PM 30.7 °F 18.5 °F 28.2 °F 90% 29.48 in 1.2 mi NNW 19.6 mph 33.4 mph 0.00 in   Overcast
2:06 PM 30.2 °F 16.2 °F 28.4 °F 93% 29.48 in 1.5 mi NNW 25.3 mph 32.2 mph N/A   Overcast
2:20 PM 30.2 °F 16.2 °F 28.4 °F 93% 29.48 in 1.2 mi NNW 25.3 mph 32.2 mph N/A   Overcast
2:32 PM 30.2 °F 17.1 °F 28.4 °F 93% 29.48 in 1.0 mi NNW 21.9 mph 28.8 mph N/A Snow Light Snow
2:55 PM 30.7 °F 18.8 °F 28.6 °F 92% 29.49 in 1.0 mi NNW 18.4 mph 29.9 mph 0.00 in   Mist
3:00 PM 30.2 °F 17.8 °F 28.4 °F 93% 29.49 in 0.8 mi NNW 19.6 mph 27.6 mph N/A Snow Light Snow
3:17 PM 30.2 °F 18.1 °F 28.4 °F 93% 29.49 in 0.8 mi NNW 18.4 mph 32.2 mph N/A Snow Light Snow
3:44 PM 30.2 °F 16.8 °F 28.4 °F 93% 29.51 in 0.8 mi NW 23.0 mph 28.8 mph N/A Snow Light Snow
3:55 PM 30.2 °F 17.8 °F 28.4 °F 93% 29.51 in 0.8 mi NW 19.6 mph 31.1 mph N/A Snow Light Snow
4:55 PM 30.2 °F 17.1 °F 26.6 °F 86% 29.54 in 1.0 mi NW 21.9 mph 32.2 mph N/A Snow Light Snow
5:55 PM 30.2 °F 17.4 °F 26.6 °F 86% 29.57 in 1.1 mi NW 20.7 mph 31.1 mph N/A Snow Light Snow
6:55 PM 30.2 °F 15.9 °F 26.6 °F 86% 29.61 in 1.2 mi NW 26.5 mph 39.1 mph N/A Snow Light Snow
7:32 PM 28.4 °F 14.1 °F 24.8 °F 86% 29.59 in 2.0 mi NW 24.2 mph 35.7 mph N/A Snow Blowing Snow
7:55 PM 28.4 °F 14.7 °F 24.8 °F 86% 29.64 in 2.0 mi NW 21.9 mph 33.4 mph N/A Snow Blowing Snow
8:55 PM 28.2 °F 14.5 °F 22.8 °F 80% 29.66 in 0.8 mi NW 21.9 mph 34.5 mph 0.00 in   Light Freezing Rain
8:57 PM 28.4 °F 14.4 °F 23.0 °F 80% 29.66 in 0.8 mi NW 23.0 mph 31.1 mph N/A   Haze
9:09 PM 28.4 °F 14.4 °F 23.0 °F 80% 29.67 in 0.8 mi NW 23.0 mph 35.7 mph N/A   Light Freezing Rain
9:10 PM 28.4 °F 14.4 °F 23.0 °F 80% 29.68 in 0.8 mi NW 23.0 mph 35.7 mph N/A   Haze
9:17 PM 28.4 °F 13.8 °F 21.2 °F 74% 29.68 in 0.8 mi NW 25.3 mph 35.7 mph N/A   Light Freezing Rain
9:19 PM 28.4 °F 14.7 °F 21.2 °F 74% 29.68 in 0.8 mi NW 21.9 mph 32.2 mph N/A   Haze
9:55 PM 27.0 °F 12.2 °F 20.7 °F 77% 29.69 in 0.8 mi NW 24.2 mph 29.9 mph 0.00 in   Haze
10:55 PM 25.3 °F 11.0 °F 19.2 °F 78% 29.73 in 0.8 mi WNW 20.7 mph 32.2 mph N/A   Haze
11:03 PM 24.8 °F 10.0 °F 19.4 °F 80% 29.73 in 0.8 mi WNW 21.9 mph 28.8 mph N/A   Haze
11:15 PM 24.8 °F 10.7 °F 19.4 °F 80% 29.74 in 0.8 mi WNW 19.6 mph 26.5 mph N/A   Haze
11:20 PM 24.8 °F 9.3 °F 19.4 °F 80% 29.74 in 0.8 mi WNW 24.2 mph 28.8 mph N/A   Haze
11:22 PM 24.8 °F 11.1 °F 17.6 °F 74% 29.74 in 0.8 mi WNW 18.4 mph 28.8 mph N/A   Haze
11:46 PM 24.8 °F 10.7 °F 17.6 °F 74% 29.75 in 0.8 mi WNW 19.6 mph 28.8 mph N/A   Haze
11:48 PM 24.8 °F 10.3 °F 17.6 °F 74% 29.75 in 0.8 mi WNW 20.7 mph 28.8 mph N/A   Haze
11:51 PM 24.8 °F 10.3 °F 17.6 °F 74% 29.75 in 0.8 mi WNW 20.7 mph - N/A   Haze
11:55 PM 23.9 °F 9.5 °F 18.0 °F 78% 29.76 in 0.8 mi WNW 19.6 mph - N/A   Haze